This demonstration page uses our WeatherBlox Daily Observations layout. Learn more.

Left ArrowRight Arrow

Hourly Observations for March 7, 2021

Temp ( °F °C ) Dew Point ( °F °C ) Humidity (%) Winds ( mph kmh ) Pressure ( in mb ) Visibility ( mi km ) Precip ( " mm )
12:54 am 00:54 Clear 47 8.3 37 2.8 69 69 S 13 20 30.13 1020 10 16.0934 0 0
1:54 am 01:54 Clear 48 8.9 37 2.8 66 66 S 13 20 30.14 1021 10 16.0934 0 0
2:54 am 02:54 Clear 47 8.3 36 2.2 66 66 S 15 24 30.13 1020 10 16.0934 0 0
3:54 am 03:54 Clear 45 7.2 35 1.7 68 68 S 14 22 30.12 1020 10 16.0934 0 0
4:54 am 04:54 Clear 47 8.3 34 1.1 61 61 S 16 26 30.12 1020 10 16.0934 0 0
5:54 am 05:54 Clear 46 7.8 34 1.1 63 63 S 15 24 30.13 1020 10 16.0934 0 0
6:54 am 06:54 Sunny 43 6.1 34 1.1 71 71 S 15 24 30.14 1021 10 16.0934 0 0
7:54 am 07:54 Sunny 47 8.3 34 1.1 61 61 S 18 30 30.15 1021 10 16.0934 0 0
8:54 am 08:54 Sunny 52 11.1 35 1.7 53 53 SSW 24 39 30.14 1021 10 16.0934 0 0
9:54 am 09:54 Sunny 57 13.9 36 2.2 45 45 SSW 28 44 30.14 1021 10 16.0934 0 0
10:54 am 10:54 Sunny 61 16.1 36 2.2 39 39 SSW 28 44 30.12 1020 10 16.0934 0 0
11:54 am 11:54 Sunny 66 18.9 36 2.2 33 33 SSW 26 43 30.1 1019 10 16.0934 0 0
12:54 pm 12:54 Sunny 67 19.4 35 1.7 31 31 SSW 29 46 30.08 1019 10 16.0934 0 0
1:54 pm 13:54 Sunny 70 21.1 36 2.2 29 29 SSW 28 44 30.06 1018 10 16.0934 0 0
2:54 pm 14:54 Sunny 72 22.2 36 2.2 27 27 SSW 20 31 30.05 1018 10 16.0934 0 0
3:54 pm 15:54 Sunny 71 21.7 37 2.8 29 29 SSW 21 33 30.05 1018 10 16.0934 0 0
4:54 pm 16:54 Sunny 70 21.1 37 2.8 30 30 SSW 24 39 30.04 1017 10 16.0934 0 0
5:54 pm 17:54 Sunny 67 19.4 37 2.8 33 33 SSW 17 28 30.07 1018 10 16.0934 0 0
6:54 pm 18:54 Clear 63 17.2 36 2.2 37 37 S 14 22 30.09 1019 10 16.0934 0 0
7:54 pm 19:54 Clear 55 12.8 36 2.2 49 49 S 12 19 30.11 1020 10 16.0934 0 0
8:54 pm 20:54 Clear 50 10 35 1.7 57 57 S 9 15 30.13 1020 10 16.0934 0 0
9:54 pm 21:54 Clear 55 12.8 37 2.8 51 51 S 13 20 30.14 1021 10 16.0934 0 0
10:54 pm 22:54 Clear 55 12.8 36 2.2 49 49 SSW 12 19 30.16 1021 10 16.0934 0 0
11:54 pm 23:54 Clear 53 11.7 36 2.2 52 52 S 10 17 30.16 1021 10 16.0934 0 0

Powered by AerisWeather